FW4018 Weather Reports


time (UTC)temp
C
wind
direction
speed
KPH
gust
KPH
rain 1hr
cm
rain 24hr
cm
rain mn
cm
humidity
%
barometer
mb
20260507075516 18 30 4.8 8.0 0.00 0.03 0.00 73 1019.7
20260507074556 18 36 3.2 8.0 0.00 0.03 0.00 75 1019.6
20260507073516 17 58 4.8 11.3 0.00 0.03 0.00 76 1019.7
20260507072536 17 33 1.6 6.4 0.00 0.03 0.00 80 1019.7
20260507071516 17 52 1.6 8.0 0.00 0.03 0.00 80 1019.6
20260507070516 17 72 1.6 3.2 0.00 0.03 0.00 81 1019.5
20260507065536 16 58 1.6 6.4 0.00 0.03 0.00 84 1019.6
20260507064536 16 63 1.6 6.4 0.00 0.03 0.00 89 1019.6
20260507063516 15 326 1.6 4.8 0.00 0.03 0.00 91 1019.6
20260507062516 15 307 1.6 6.4 0.00 0.03 0.00 91 1019.6
20260507061516 15 322 1.6 4.8 0.00 0.03 0.00 94 1019.6
20260507060536 15 51 3.2 6.4 0.00 0.03 0.00 96 1019.6
20260507055517 14 302 3.2 6.4 0.00 0.03 0.00 99 1019.5
20260507054516 14 323 3.2 6.4 0.00 0.03 0.00 100 1019.7
20260507053516 13 340 1.6 6.4 0.00 0.03 0.00 100 1019.6
20260507052516 13 305 1.6 3.2 0.00 0.03 0.00 100 1019.6
20260507051516 13 338 1.6 6.4 0.00 0.03 0.00 100 1019.6
20260507050516 13 305 3.2 4.8 0.00 0.03 0.00 100 1019.5
20260507045516 12 321 1.6 4.8 0.00 0.03 0.00 100 1019.5
20260507044516 12 275 1.6 4.8 0.00 0.03 0.00 100 1019.6
20260507043516 12 320 1.6 4.8 0.00 0.03 0.00 100 1019.3
20260507042516 12 294 0.0 4.8 0.00 0.03 0.00 100 1019.2
20260507041516 11 314 1.6 4.8 0.00 0.03 0.00 100 1019.1
20260507040516 11 313 1.6 3.2 0.00 0.03 0.00 100 1019.1
20260507035516 11 285 1.6 3.2 0.00 0.03 0.00 100 1019.0
20260507034556 11 309 0.0 1.6 0.00 0.03 0.00 100 1019.0
20260507033516 11 320 0.0 1.6 0.00 0.03 0.00 100 1019.0
20260507032517 11 322 0.0 1.6 0.00 0.03 0.00 100 1018.8
20260507031516 10 320 0.0 3.2 0.00 0.03 0.00 100 1018.7
20260507030516 10 294 0.0 1.6 0.00 0.03 0.00 100 1018.6
20260507025516 10 313 0.0 3.2 0.00 0.03 0.00 100 1018.6
20260507024516 10 308 0.0 1.6 0.00 0.03 0.00 100 1018.6
20260507023556 10 250 0.0 0.0 0.00 0.03 0.00 100 1018.5
20260507022516 10 314 0.0 0.0 0.00 0.03 0.00 100 1018.4
20260507021516 10 319 0.0 0.0 0.00 0.03 0.00 100 1018.3
20260507020536 10 252 0.0 0.0 0.00 0.03 0.00 100 1018.3
20260507015516 10 308 0.0 0.0 0.00 0.03 0.00 100 1018.3
20260507014516 10 241 0.0 0.0 0.00 0.03 0.00 100 1018.2
20260507013516 10 0.0 0.0 0.00 0.03 0.00 100 1018.3
20260507012536 10 0.0 0.0 0.00 0.03 0.00 100 1018.2
20260507011516 10 218 0.0 0.0 0.00 0.03 0.00 100 1018.2
20260507010536 9 214 0.0 0.0 0.00 0.03 0.00 100 1018.2
20260507005516 9 307 0.0 1.6 0.00 0.03 0.00 100 1018.1
20260507004536 9 0.0 0.0 0.00 0.03 0.00 100 1018.1
20260507003516 10 0.0 0.0 0.00 0.03 0.00 100 1017.9
20260507002537 10 0.0 0.0 0.00 0.03 0.00 100 1017.8
20260507001517 10 0.0 0.0 0.00 0.03 0.00 100 1017.7
20260507000517 10 247 0.0 0.0 0.00 0.03 0.00 100 1017.7
20260506235516 10 292 0.0 1.6 0.00 0.03 0.00 100 1017.6
20260506234516 10 267 0.0 0.0 0.00 0.03 0.00 100 1017.4
20260506233516 10 311 0.0 3.2 0.00 0.03 0.00 100 1017.2
20260506232536 10 306 0.0 3.2 0.00 0.03 0.00 100 1017.3
20260506231516 10 324 1.6 6.4 0.00 0.03 0.00 100 1017.2
20260506230516 10 319 1.6 3.2 0.00 0.03 0.00 100 1017.2
20260506225516 11 320 1.6 4.8 0.00 0.03 0.00 100 1017.1
20260506224516 11 330 0.0 3.2 0.00 0.03 0.00 100 1017.2
20260506223516 11 287 0.0 1.6 0.00 0.03 0.00 100 1017.2
20260506222516 11 308 0.0 0.0 0.00 0.03 0.00 100 1017.3
20260506221516 11 259 0.0 0.0 0.00 0.03 0.00 100 1017.3
20260506220516 11 266 0.0 1.6 0.00 0.03 0.00 100 1017.2
20260506215516 11 317 0.0 1.6 0.00 0.03 0.00 100 1017.2
20260506214516 11 17 0.0 4.8 0.00 0.03 0.00 100 1017.1
20260506213516 11 344 1.6 6.4 0.00 0.03 0.00 100 1017.2
20260506212537 11 348 1.6 6.4 0.00 0.03 0.00 100 1017.1
20260506211516 12 7 0.0 1.6 0.00 0.03 0.00 100 1017.0
20260506210516 12 30 0.0 0.0 0.00 0.03 0.00 100 1017.1
20260506205516 12 38 0.0 1.6 0.00 0.03 0.03 100 1017.1
20260506204536 12 43 0.0 3.2 0.00 0.03 0.03 100 1016.9
20260506203553 12 16 0.0 3.2 0.00 0.03 0.03 100 1016.8
20260506202516 12 15 0.0 3.2 0.00 0.03 0.03 100 1016.7
20260506201536 12 8 0.0 3.2 0.00 0.03 0.03 100 1016.6
20260506200536 12 52 0.0 1.6 0.00 0.03 0.03 100 1016.6
20260506195516 13 29 0.0 3.2 0.00 0.03 0.03 100 1016.6
20260506194516 13 350 1.6 4.8 0.00 0.03 0.03 100 1016.6
20260506193520 13 338 0.0 3.2 0.00 0.03 0.03 100 1016.6
20260506192516 13 316 0.0 0.0 0.00 0.03 0.03 100 1016.5
20260506191516 13 271 0.0 0.0 0.00 0.03 0.03 100 1016.5
20260506190516 13 0.0 0.0 0.00 0.03 0.03 100 1016.5
20260506185516 13 311 0.0 1.6 0.00 0.03 0.03 100 1016.4
20260506184516 13 301 0.0 0.0 0.00 0.03 0.03 100 1016.4
20260506183516 13 308 0.0 0.0 0.00 0.03 0.03 100 1016.4
20260506182516 13 303 0.0 1.6 0.00 0.03 0.03 100 1016.4
20260506181516 14 206 0.0 1.6 0.00 0.03 0.03 100 1016.4
20260506180516 14 225 0.0 0.0 0.00 0.03 0.03 100 1016.3
20260506175536 14 291 0.0 1.6 0.00 0.03 0.03 100 1016.1
20260506174516 15 299 0.0 3.2 0.00 0.03 0.03 100 1016.0
20260506173516 15 308 1.6 4.8 0.00 0.03 0.03 100 1016.0
20260506172516 15 328 3.2 6.4 0.00 0.03 0.03 100 1015.9
20260506171516 15 303 3.2 4.8 0.00 0.03 0.03 100 1015.8
20260506170516 15 310 1.6 4.8 0.03 0.03 0.03 100 1015.8
20260506165516 16 304 0.0 6.4 0.03 0.03 0.03 96 1015.6
20260506164516 16 317 1.6 3.2 0.03 0.03 0.03 89 1015.7
20260506163516 17 305 1.6 6.4 0.03 0.03 0.03 85 1015.7
20260506162516 17 268 0.0 1.6 0.03 0.03 0.03 83 1015.5
20260506161516 18 270 1.6 3.2 0.03 0.03 0.03 78 1015.4
20260506160516 18 318 1.6 3.2 0.00 0.00 0.00 73 1015.4
20260506155516 18 311 1.6 8.0 0.00 0.00 0.00 71 1015.2
20260506154516 18 312 1.6 6.4 0.00 0.00 0.00 70 1015.2
20260506153516 18 290 3.2 8.0 0.00 0.00 0.00 68 1015.1
20260506152517 19 251 3.2 8.0 0.00 0.00 0.00 67 1015.1
20260506151520 19 239 3.2 9.7 0.00 0.00 0.00 65 1015.1
20260506150518 20 244 4.8 11.3 0.00 0.00 0.00 63 1015.0
20260506145526 20 264 3.2 9.7 0.00 0.00 0.00 60 1015.0
20260506144516 21 234 3.2 11.3 0.00 0.00 0.00 58 1014.9
20260506143536 22 268 4.8 9.7 0.00 0.00 0.00 54 1014.9
20260506142516 22 266 1.6 6.4 0.00 0.00 0.00 51 1014.8
20260506141556 22 162 1.6 4.8 0.00 0.00 0.00 54 1014.7
20260506140536 21 100 0.0 1.6 0.00 0.00 0.00 57 1014.7
20260506135537 21 90 0.0 1.6 0.00 0.00 0.00 55 1014.6
20260506134516 21 337 1.6 3.2 0.00 0.00 0.00 54 1014.7
20260506133516 22 76 0.0 0.0 0.00 0.00 0.00 55 1014.7
20260506132517 22 78 0.0 1.6 0.00 0.00 0.00 54 1014.7
20260506131517 23 66 1.6 3.2 0.00 0.00 0.00 53 1014.7
20260506130516 23 87 1.6 3.2 0.00 0.00 0.00 50 1014.7
20260506125516 25 66 3.2 8.0 0.00 0.00 0.00 51 1014.7
20260506124517 26 78 1.6 4.8 0.00 0.00 0.00 51 1014.6
20260506123536 25 70 3.2 8.0 0.00 0.00 0.00 54 1014.5
20260506122516 25 43 3.2 11.3 0.00 0.00 0.00 52 1014.6
20260506121530 24 41 0.0 6.4 0.00 0.00 0.00 57 1014.7
20260506120517 23 14 1.6 3.2 0.00 0.00 0.00 57 1014.8
20260506115536 23 66 3.2 8.0 0.00 0.00 0.00 60 1014.9
20260506114516 23 63 3.2 6.4 0.00 0.00 0.00 64 1014.9
20260506113536 22 48 1.6 6.4 0.00 0.00 0.00 65 1014.9
20260506112516 21 40 1.6 4.8 0.00 0.00 0.00 70 1014.9
20260506111516 20 57 0.0 3.2 0.00 0.00 0.00 67 1015.0
20260506110536 21 71 1.6 3.2 0.00 0.00 0.00 67 1015.0
20260506105516 22 55 1.6 6.4 0.00 0.00 0.00 66 1015.1
20260506104516 21 63 1.6 4.8 0.00 0.00 0.00 66 1015.1
20260506103516 21 298 1.6 4.8 0.00 0.00 0.00 66 1015.0
20260506102516 21 21 3.2 8.0 0.00 0.00 0.00 70 1015.0
20260506101516 20 52 0.0 3.2 0.00 0.00 0.00 72 1015.0
20260506100517 20 265 0.0 0.0 0.00 0.00 0.00 72 1015.0
20260506095516 21 72 0.0 1.6 0.00 0.00 0.00 72 1015.0
20260506094537 21 68 0.0 1.6 0.00 0.00 0.00 72 1015.0
20260506093516 21 94 0.0 4.8 0.00 0.00 0.00 73 1015.1
20260506092516 21 48 3.2 8.0 0.00 0.00 0.00 72 1015.1
20260506091516 20 139 1.6 8.0 0.00 0.00 0.00 82 1015.2
20260506090516 19 88 1.6 4.8 0.00 0.00 0.00 84 1015.2
20260506085516 18 328 1.6 4.8 0.00 0.00 0.00 83 1015.2
20260506084517 18 26 1.6 4.8 0.00 0.00 0.00 87 1015.3
20260506083516 18 344 1.6 3.2 0.00 0.00 0.00 86 1015.4
20260506082516 18 62 1.6 3.2 0.00 0.00 0.00 88 1015.4
20260506081536 18 79 1.6 4.8 0.00 0.00 0.00 93 1015.5
20260506080536 18 54 0.0 3.2 0.00 0.00 0.00 90 1015.5